Preview of NWS' New Version of Forecast
This preview is not operational and should not be used for support decisions.
Latest weather observations around

Lansing Municipal Airport (KIGQ)

Using English Units (Switch to International System of Units)
Date/ Time (CST) Wind (mph) Vis. (mi) Weather Sky Cond. Temp (°F) Rel. Humidity Wind Chill (°F) Heat Index (°F) Pressure Precip. (in)
Air Dwpt 6 hour Altimeter (inHg) Sea level (inHg) 1 hr 3 hr 6 hr
Max Min
Notice The following observation data may not be complete
Dec 16 23:15   10 Clear CLR          %              
Dec 16 22:55 W 6 10 Clear CLR 33 30     88% 27   30.1        
Dec 16 22:35 WSW 6 10 Clear CLR 32 29     88% 27   30.09        
Dec 16 22:15 WSW 6 10 Clear CLR 33 29     86% 28   30.1        
Dec 16 21:55 WSW 5 10 Clear CLR 33 30     88% 29   30.09        
Dec 16 21:35 WSW 6 10 Clear CLR 33 29     86% 28   30.1        
Dec 16 21:15 WSW 5 10 Clear CLR 33 30     86% 29   30.1        
Dec 16 20:55 WSW 3 10 Clear CLR 34 31     87% 32   30.1        
Dec 16 20:35 W 3 10 Clear CLR 34 31     88% 32   30.11        
Dec 16 20:15 W 6 10 Clear CLR 34 30     88% 28   30.11        
Dec 16 19:55 WSW 5 10 Clear CLR 34 31     87% 30   30.11        
Dec 16 19:35 WSW 3 10 Clear CLR 35 31     87% 32   30.11        
Dec 16 19:15 W 6 10 Clear CLR 35 31     85% 30   30.11        
Dec 16 18:55 W 5 10 Clear CLR 36 32     84% 33   30.11        
Dec 16 18:35 W 3 10 Clear CLR 36 32     82% 34   30.11        
Dec 16 18:15 W 3 10 Clear CLR 38 32     80% 35   30.1        
Dec 16 17:55 W 6 10 Clear CLR 39 32     77% 34   30.1        
Dec 16 17:35 WNW 3 10 Clear CLR 40 32     74% 38   30.1        
Dec 16 17:15 W 6 10 Clear CLR 40 32     73% 36   30.09        
Dec 16 16:55 W 7 10 Clear CLR 41 32     69% 36   30.08        
Dec 16 16:35 W 7 10 Clear CLR 42 31     67% 37   30.08        
Dec 16 16:15 W 8 10 Clear CLR 43 32     65% 38   30.07        
Dec 16 15:55 W 9 10 Clear CLR 45 32     60% 40   30.06        
Dec 16 15:35 W 7 10 Clear CLR 47 32     57% 43   30.06        
Dec 16 15:15 W 7 10 Clear CLR 47 32     55% 44   30.05        
Dec 16 14:55 W 9 10 Clear CLR 47 32     54% 43   30.04        
Dec 16 14:35 W 11 10 Clear CLR 47 32     54% 42   30.04        
Dec 16 14:15 WSW 11 10 Clear CLR 47 31     54% 42   30.05        
Dec 16 13:55 WSW 8 10 Clear CLR 48 32     54% 44   30.05        
Dec 16 13:35 WSW 9 10 Clear CLR 47 32     56% 43   30.05        
Dec 16 13:15 WSW 6 10 Clear CLR 45 32     59% 42   30.04        
Dec 16 12:55 W 9 10 Clear CLR 45 32     59% 41   30.06        
Dec 16 12:35 W 14 10 Clear CLR 46 32     59% 40   30.06        
Dec 16 12:15 WSW 9 10 Clear CLR 45 33     61% 41   30.07        
Dec 16 11:55 W 8 10 Clear CLR 44 34     67% 39   30.08        
Dec 16 11:35 W 9 10 Clear CLR 42 34     73% 36   30.08        
Dec 16 11:15 WSW 7 10 Clear CLR 40 35     84% 35   30.09        
Dec 16 10:55 WSW 6 7 Clear CLR 37 37     100% 33   30.1        
Dec 16 10:35 SW 3 3 Fog/Mist SCT002 35 35     99% 32   30.11        
Dec 16 10:15 SW 5 0.75 Fog/Mist OVC002 32 32     100% 28   30.12        
Dec 16 09:55 WSW 5 0.25 Fog OVC002 31 31     100% 27   30.13        
Dec 16 09:35 WSW 5 0.25 Fog OVC002 31 31     100% 26   30.13        
Dec 16 09:15 W 5 0.25 Fog OVC002 30 30     99% 25   30.13        
Dec 16 08:55 WSW 3 0.25 Fog OVC002 29 29     99% 26   30.13        
Dec 16 08:35 Calm 0.25 Fog OVC002 28 28     100%     30.12        
Dec 16 08:15 Calm 0.25 Fog OVC002 27 27     100%     30.12        
Dec 16 07:55 Calm 0.25 Fog OVC002 27 27     99%     30.12        
Dec 16 07:35 Calm 0.25 Fog OVC002 27 27     99%     30.11        
Dec 16 07:15 Calm 0.25 Fog OVC002 27 27     99%     30.11        
Dec 16 06:55 Calm 0.25 Fog OVC002 27 27     99%     30.11        
Dec 16 06:35 Calm 0.25 Fog OVC002 27 27     99%     30.12        
Dec 16 06:15 Calm 0.25 Fog OVC002 27 27     99%     30.12        
Dec 16 05:55 Calm 0.25 Light Snow OVC002 27 27     100%     30.12        
Dec 16 05:35 Calm 0.25 Fog OVC002 26 26     99%     30.12        
Dec 16 05:15 SSW 3 0.25 Fog OVC002 26 26     99% 22   30.12        
Dec 16 04:55 Calm 0.25 Fog OVC002 27 27     99%     30.11        
Dec 16 04:35 Calm 0.25 Fog OVC004 27 27     99%     30.12        
Dec 16 04:15 Calm 1.75 Fog/Mist VV007 29 28     99%     30.12        
Dec 16 03:55 Calm 2 Fog/Mist CLR 30 29     99%     30.13        
Dec 16 03:35 Calm 1.5 Clear   30 29     99%     30.13        
Dec 16 03:15 Calm 3 Clear   31 30     98%     30.12        
Dec 16 02:55 Calm 5 Clear   32 31     98%     30.13        
Dec 16 02:35 Calm 7 Clear CLR 32 32     98%     30.12        
Dec 16 02:15 WNW 6 7 Clear CLR 32 31     95% 26   30.12        
Dec 16 01:55 NE 3 7 Clear CLR 33 32     96% 30   30.11        
Dec 16 01:35 NNE 5 7 Clear CLR 33 32     96% 29   30.11        
Dec 16 01:15 N 3 7 Clear CLR 33 32     96% 30   30.12        
Dec 16 00:55 NNW 3 7 Clear CLR 32 32     99% 29   30.12        
Dec 16 00:35 N 3 5 Fog/Mist CLR 32 31     97% 29   30.11        
Dec 16 00:15 Calm 5 Fog/Mist CLR 32 31     96%     30.11        
Dec 15 23:55 NNW 3 7 Clear CLR 33 32     96% 30   30.11        
Dec 15 23:35 Calm 7 Clear CLR 32 30     94%     30.12        
Dec 15 23:15 Calm 7 Clear CLR 32 30     92%     30.11        
Dec 15 22:55 Calm 10 Clear CLR 34 31     90%     30.11        
Dec 15 22:35 Calm 10 Clear CLR 36 32     87%     30.12        
Dec 15 22:15 NNE 3 10 Clear CLR 36 33     87% 33   30.11        
Dec 15 21:55 N 5 10 Clear CLR 36 33     87% 33   30.12        
Dec 15 21:35 N 5 10 Clear CLR 37 34     89% 33   30.13        
Dec 15 21:15 ENE 5 10 Clear CLR 36 33     89% 33   30.13        
Dec 15 20:55 N 5 10 Clear CLR 37 34     89% 33   30.13        
Dec 15 20:35 N 6 7 Clear   36 34     91% 32   30.13        
Dec 15 20:15 NNE 5 7 Clear   36 34     90% 33   30.14        
Dec 15 19:55 N 6 10 Clear   37 34     89% 32   30.14        
Dec 15 19:35 N 5 10 Clear CLR 37 34     88% 33   30.16        
Dec 15 19:15 N 6 10 Clear CLR 37 34     88% 32   30.15        
Dec 15 18:55 N 7 10 Clear CLR 37 33     87% 32   30.15        
Dec 15 18:35 N 7 10 Clear CLR 37 33     85% 32   30.15        
Dec 15 18:15 N 5 10 Clear CLR 38 33     85% 34   30.15        
Dec 15 17:55 N 6 10 Clear CLR 38 34     84% 34   30.15        
Dec 15 17:35 N 7 10 Clear CLR 38 33     82% 33   30.15        
Dec 15 17:15 N 6 10 Clear CLR 38 33     82% 34   30.15        
Dec 15 16:55 N 5 10 Clear CLR 38 33     81% 35   30.14        
Dec 15 16:35 NNE 9 10 Clear CLR 40 33     77% 33   30.14        
Dec 15 16:15 NNE 8 10 Clear CLR 40 33     74% 35   30.14        
Dec 15 15:55 NNE 9 10 Clear CLR 41 33     72% 35   30.13        
Dec 15 15:35 N 9 10 Clear CLR 42 33     70% 36   30.13        
Dec 15 15:15 N 10 10 Clear CLR 42 33     69% 36   30.11        
Dec 15 14:55 NE 8 10 Clear CLR 43 31     63% 38   30.11        
Dec 15 14:35 NE 11 10 Clear CLR 44 32     62% 38   30.11        
Dec 15 14:15 N 9 10 Clear CLR 44 34     67% 39   30.11        
Dec 15 13:55 NNE 10 10 Clear CLR 44 33     66% 39   30.11        
Dec 15 13:35 NNE 9 10 Clear CLR 45 33     64% 40   30.11        
Dec 15 13:15 NNE 6 10 Clear CLR 45 33     63% 42   30.11        
Dec 15 12:55 N 8 10 Clear CLR 46 33     60% 42   30.11        
Dec 15 12:35 N 9 10 Clear CLR 46 32     59% 41   30.11        
Dec 15 12:15 NE 10 10 Clear CLR 46 31     56% 41   30.12        
Dec 15 11:55 NNE 10 10 Clear CLR 45 31     60% 39   30.12        
Dec 15 11:35 NNE 8 10 Clear CLR 44 32     62% 40   30.13        
Dec 15 11:15 NNE 9 10 Clear CLR 44 32     63% 39   30.13        
Dec 15 10:55 NNE 8 10 Clear CLR 44 32     63% 39   30.14        
Dec 15 10:35 NNE 8 10 Clear CLR 43 32     66% 38   30.15        
Dec 15 10:15 NNE 8 10 Clear CLR 42 32     68% 37   30.15        
Dec 15 09:55 NNE 8 10 Clear CLR 42 32     68% 37   30.15        
Dec 15 09:35 NNE 9 10 Clear CLR 41 32     71% 35   30.15        
Dec 15 09:15 NE 11 10 Clear CLR 40 32     75% 33   30.15        
Dec 15 08:55 NE 9 10 Clear CLR 38 33     80% 32   30.16        
Dec 15 08:35 NE 10 7 Clear CLR 38 33     83% 31   30.16        
Dec 15 08:15 NNE 7 7 Clear CLR 36 32     84% 31   30.16        
Dec 15 07:55 NE 9 7 Clear CLR 36 32     86% 29   30.16        
Dec 15 07:35 NNE 9 5 Fog/Mist CLR 36 32     87% 29   30.16        
Dec 15 07:15 NNE 8 5 Fog/Mist CLR 36 32     87% 29   30.15        
Dec 15 06:55 NNE 7 5 Fog/Mist CLR 36 32     88% 30   30.15        
Dec 15 06:35 NNE 8 5 Fog/Mist CLR 36 33     92% 29   30.15        
Dec 15 06:15 NNE 8 4 Fog/Mist CLR 36 35     96% 29   30.15        
Dec 15 05:55 NNE 8 3 Fog/Mist SCT005 36 35     97% 30   30.15        
Dec 15 05:35 NE 10 2.5 Fog/Mist BKN005 36 36     97% 29   30.14        
Dec 15 05:15 NNE 7 2 Fog/Mist OVC005 36 35     94% 31   30.13        
Dec 15 04:55 NNE 8 3 Fog/Mist OVC007 37 36     94% 31   30.13        
Dec 15 04:35 NNE 8 3 Fog/Mist OVC007 37 36     95% 31   30.14        
Dec 15 04:15 NE 8 3 Fog/Mist OVC007 37 35     94% 31   30.13        
Dec 15 03:55 NNE 8 4 Fog/Mist OVC005 37 36     94% 31   30.14        
Dec 15 03:35 NNE 10 3 Fog/Mist OVC005 37 36     96% 30   30.15        
Dec 15 03:15 NNE 9 3 Fog/Mist OVC005 37 36     97% 30   30.15        
Dec 15 02:55 NNE 8 3 Fog/Mist OVC005 37 36     97% 31   30.14        
Dec 15 02:35 NE 10 3 Fog/Mist OVC005 36 36     98% 29   30.15        
Dec 15 02:15 NNE 7 2.5 Fog/Mist OVC005 36 36     99% 31   30.16        
Dec 15 01:55 NNE 6 2 Fog/Mist OVC005 35 35     98% 30   30.16        
Dec 15 01:35 NNE 5 1.75 Fog/Mist OVC005 35 35     98% 31   30.16        
Dec 15 01:15 Calm 2 Fog/Mist OVC005 35 34     96%     30.16        
Dec 15 00:55 NNE 3 2.5 Fog/Mist OVC005 35 34     96% 33   30.16        
Dec 15 00:35 NNE 6 3 Fog/Mist OVC005 36 35     95% 31   30.16        
Dec 15 00:15 NNE 8 3 Fog/Mist OVC005 36 34     94% 29   30.16        
Dec 14 23:55 NE 7 3 Fog/Mist OVC005 36 34     94% 30   30.16        
Dec 14 23:35 NE 7 3 Fog/Mist OVC005 36 34     94% 30   30.16        
Dec 14 23:15 NE 6 3 Fog/Mist OVC005 36 35     94% 31   30.16        
Dec 14 22:55 NNE 7 3 Fog/Mist OVC005 37 35     94% 31   30.17        
Dec 14 22:35 NNE 3 3 Fog/Mist OVC005 37 35     94% 34   30.18        
Dec 14 22:15 NE 9 3 Fog/Mist OVC005 37 36     93% 31   30.19        
Dec 14 21:55 NE 8 3 Fog/Mist OVC005 37 36     94% 31   30.19        
Dec 14 21:35 NNE 8 3 Fog/Mist OVC005 37 36     94% 31   30.2        
Dec 14 21:15 NNE 10 3 Fog/Mist OVC005 38 36     95% 31   30.21        
Dec 14 20:55 NNE 7 3 Fog/Mist OVC005 38 37     99% 32   30.23        
Dec 14 20:35 NNE 9 2.5 Fog/Mist OVC003 38 37     99% 31   30.22        
Dec 14 20:15 N 8 1.75 Fog/Mist OVC003 38 37     99% 32   30.22        
Dec 14 19:55 NNE 9 1.75 Fog/Mist OVC003 38 38     99% 31   30.21        
Dec 14 19:35 NE 9 1.75 Fog/Mist OVC003 38 38     99% 31   30.22        
Dec 14 19:15 NNE 10 1.5 Fog/Mist OVC003 38 38     99% 31   30.22        
Dec 14 18:55 NE 9 1.75 Fog/Mist OVC003 38 37     98% 31   30.21        
Dec 14 18:35 ENE 9 2 Fog/Mist OVC003 38 38     98% 32   30.21        
Dec 14 18:15 NE 8 2 Fog/Mist OVC003 38 38     98% 32   30.2        
Dec 14 17:55 NNE 8 2.5 Fog/Mist OVC003 38 38     98% 33   30.2        
Dec 14 17:35 NNE 9 2.5 Fog/Mist OVC003 39 38     99% 32   30.21        
Dec 14 17:15 NNE 10 3 Fog/Mist OVC005 39 38     99% 32   30.21        
Dec 14 16:55 NNE 11 2.5 Fog/Mist OVC003 39 38     99% 31   30.19        
Dec 14 16:35 NNE 10 1.75 Fog/Mist OVC003 38 38     99% 32   30.19        
Dec 14 16:15 NNE 9 0.75 Fog/Mist OVC003 38 38     99% 32   30.19        
Dec 14 15:55 NNE 8 0.75 Fog/Mist OVC003 38 38     98% 32   30.19        
Dec 14 15:35 NNE 8 1.25 Fog/Mist OVC003 39 38     99% 33   30.19        
Dec 14 15:15 NNE 8 1.5 Fog/Mist OVC003 39 38     97% 34   30.18        
Dec 14 14:55 NNE 9 1.75 Fog/Mist OVC003 39 38     97% 33   30.16        
Dec 14 14:35 NE 6 2 Fog/Mist OVC003 40 39     97% 35   30.16        
Dec 14 14:15 NNE 7 2 Fog/Mist OVC003 40 39     97% 35   30.16        
Dec 14 13:55 NNE 8 2.5 Fog/Mist OVC003 40 39     99% 34   30.15        
Dec 14 13:35 NE 10 1.75 Fog/Mist OVC003 40 39     99% 33   30.16        
Dec 14 13:15 N 8 1 Fog/Mist OVC003 40 39     99% 34   30.16        
Dec 14 12:55 N 8 0.75 Fog/Mist OVC003 40 40     99% 34   30.16        
Dec 14 12:35 N 9 1.25 Fog/Mist OVC003 40 40     98% 34   30.17        
Dec 14 12:15 Calm 1.5 Fog/Mist OVC003 40 40     98%     30.18        
Dec 14 11:55 NNE 3 1.75 Fog/Mist OVC003 40 40     98% 38   30.19        
Dec 14 11:35 NE 3 2 Fog/Mist OVC003 41 40     98% 39   30.18        
Dec 14 11:15 N 3 2 Fog/Mist OVC003 41 40     98% 39   30.19        
Dec 14 10:55 N 7 1.75 Fog/Mist OVC003 41 40     99% 36   30.19        
Dec 14 10:35 NNE 6 1.75 Fog/Mist OVC003 40 40     99% 36   30.2        
Dec 14 10:15 Calm 1.75 Fog/Mist OVC003 40 40     100%     30.2        
Dec 14 09:55 Calm 1.75 Fog/Mist OVC003 40 40     99%     30.2        
Dec 14 09:35 Calm 1.75 Fog/Mist OVC003 40 40     99%     30.19        
Dec 14 09:15 NNE 6 1.5 Fog/Mist OVC003 40 40     100% 36   30.19        
Dec 14 08:55 N 3 1.5 Fog/Mist OVC003 40 40     99% 38   30.18        
Dec 14 08:35 NNE 6 1 Fog/Mist OVC003 40 39     99% 35   30.18        
Dec 14 08:15 N 7 1.25 Fog/Mist OVC003 39 39     99% 34   30.18        
Dec 14 07:55 N 7 1.5 Fog/Mist OVC003 40 39     99% 35   30.18        
Dec 14 07:35 NNE 7 2 Fog/Mist OVC005 40 39     99% 35   30.17        
Dec 14 07:15 NNE 6 3 Fog/Mist OVC005 40 40     99% 36   30.16        
Dec 14 06:55 N 5 4 Light Rain OVC005 40 40     100% 36   30.17        
Dec 14 06:35 NNE 6 4 Light Rain BKN003 BKN012 OVC029 40 40     100% 36   30.16        
Dec 14 06:15 N 7 4 Light Rain SCT003 BKN012 OVC021 40 40     100% 35   30.15        
Dec 14 05:55 N 6 3 Light Rain SCT003 BKN021 OVC080 40 40     100% 36   30.14       0
Dec 14 05:35 N 3 3 Light Rain SCT003 SCT007 OVC019 40 40     100% 38   30.14        
Dec 14 05:15 NNW 3 3 Rain SCT002 SCT007 OVC019 40 40     100% 37   30.13        
Dec 14 04:55 N 5 2.5 Rain BKN004 BKN007 OVC019 40 40     100% 36   30.12   0    
Dec 14 04:35 N 3 2 Rain OVC004 39 39     100% 37   30.12        
Dec 14 04:15 Calm 2 Rain OVC004 39 39     100%     30.12        
Dec 14 03:55 Calm 1.5 Rain OVC004 39 39     100%     30.11        
Dec 14 03:35 Calm 1.75 Rain OVC004 39 39     100%     30.11        
Dec 14 03:15 Calm 1.5 Rain OVC004 39 39     100%     30.1        
Dec 14 02:55 Calm 1.5 Rain OVC004 39 39     100%     30.1        
Dec 14 02:35 Calm 1.25 Rain OVC004 39 39     100%     30.1        
Dec 14 02:15 Calm 1.5 Rain OVC004 39 39     100%     30.1        
Dec 14 01:35 Calm 1.25 Light Rain OVC004 39 39     99%     30.09        
Dec 14 01:15 Calm 1.25 Light Rain OVC004 39 39     99%     30.09        
Dec 14 00:55 Calm 1.25 Light Rain OVC004 39 39     99%     30.09        
Dec 14 00:35 Calm 1.5 Rain OVC004 39 39     100%     30.09        
Dec 14 00:15 Calm 1.75 Light Rain OVC004 39 39     100%     30.09        
Dec 13 23:55 Calm 1.5 Rain OVC004 39 39     99%     30.09       0
Dec 13 23:35 Calm 1.5 Rain OVC004 39 39     99%     30.09        
Dec 13 23:15 Calm 1.5 Rain OVC004 39 39     98%     30.09        
Dec 13 22:55 Calm 1.75 Rain OVC006 39 39     98%     30.09   0    
Dec 13 22:35 Calm 2.5 Rain BKN006 OVC012 39 39     99%     30.09   0    
Dec 13 22:15 Calm 2.5 Rain OVC006 39 39     99%     30.09   0    
Dec 13 21:55 Calm 2.5 Rain OVC004 39 39     99%     30.09   0    
Dec 13 21:35 Calm 2.5 Rain OVC004 39 39     99%     30.09   0    
Dec 13 21:15 Calm 2 Rain OVC004 39 38     97%     30.09   0    
Dec 13 20:55 E 3 2.5 Rain OVC004 39 38     97% 37   30.08   0 0  
Dec 13 20:35 E 3 2.5 Rain OVC004 39 38     97% 37   30.08   0    
Dec 13 20:15 E 5 3 Light Rain OVC004 39 38     97% 36   30.08        
Dec 13 19:55 E 6 3 Light Rain OVC004 39 38     97% 35   30.08   0    
Dec 13 19:35 ESE 6 3 Rain OVC004 39 38     97% 35   30.08   0    
Dec 13 19:15 E 6 2.5 Light Rain OVC004 39 38     97% 35   30.08   0    
Dec 13 18:55 E 5 2 Rain OVC004 39 38     97% 36   30.08        
Dec 13 18:35 E 5 2 Drizzle OVC004 39 39     97% 36   30.08        
Dec 13 18:15 E 6 1.75 Light Rain BKN006 OVC010 39 38     96% 35   30.09        
Dec 13 17:55 ESE 6 2 Light Rain OVC010 40 38     93% 35   30.09        
Dec 13 17:35 E 6 5 Fog/Mist OVC012 40 37     89% 36   30.09        
Dec 13 17:15 E 6 5 Fog/Mist BKN012 BKN016 OVC027 40 37     88% 36   30.09        
Dec 13 16:55 E 8 7 Cloudy OVC024 41 37     87% 35   30.08        
Dec 13 16:35 E 5 7 Rain OVC020 41 37     84% 38   30.08        
Dec 13 16:15 E 3 7 Light Rain BKN020 OVC046 41 36     83% 39   30.08        
Dec 13 15:55 E 3 10 Cloudy OVC018 42 36     79% 40   30.09        
Dec 13 15:35 ESE 6 10 Cloudy OVC018 42 36     79% 38   30.08        
Dec 13 15:15 E 5 10 Cloudy OVC016 42 36     80% 39   30.07        
Dec 13 14:55 ENE 6 7 Cloudy OVC014 42 36     78% 38   30.07        
Dec 13 14:35 E 6 10 Cloudy OVC014 42 36     79% 38   30.08        
Dec 13 14:15 E 6 7 Cloudy OVC014 42 36     79% 38   30.07        
Dec 13 13:55 ESE 7 10 Cloudy OVC014 42 36     78% 37   30.07        
Dec 13 13:35 ESE 5 10 Cloudy OVC018 42 35     77% 39   30.06        
Dec 13 13:15 E 6 10 Mostly Cloudy BKN018 42 35     77% 38   30.08        
Dec 13 12:55 ESE 3 10 Partly Cloudy SCT013 41 35     78% 39   30.08        
Dec 13 12:35 S 9 7 Cloudy OVC011 40 35     81% 34   30.1        
Dec 13 12:15 SSE 6 7 Cloudy OVC011 38 33     82% 34   30.08        
Dec 13 11:55 SSE 9 7 Partly Cloudy SCT011 38 32     80% 31   30.08        
Dec 13 11:35 SSE 9 10 Clear CLR 40 32     72% 34   30.08        
Dec 13 11:15 SSE 10 10 Clear CLR 39 31     71% 33   30.08        
Dec 13 10:55 SSE 7 10 Clear CLR 39 30     68% 34   30.08        
Dec 13 10:35 SSE 9 10 Clear CLR 39 29     67% 33   30.09        
Dec 13 10:15 SE 9 10 Clear CLR 38 29     69% 31   30.1        
Dec 13 09:55 ESE 7 10 Clear CLR 37 29     73% 31   30.1        
Dec 13 09:35 ESE 6 10 Clear CLR 34 28     80% 28   30.1        
Dec 13 09:15 ESE 5 7 Clear CLR 32 28     85% 27   30.11        
Dec 13 08:55 Calm 5 Fog/Mist CLR 30 27     87%     30.11        
Dec 13 08:35 SE 5 5 Fog/Mist CLR 28 26     89% 23   30.1        
Dec 13 08:15 Calm 5 Fog/Mist CLR 27 25     92%     30.1        
Dec 13 07:55 E 3 4 Fog/Mist CLR 24 22     93% 20   30.1        
Dec 13 07:35 Calm 3 Fog/Mist CLR 22 20     92%     30.09        
Dec 13 07:15 E 3 4 Fog/Mist CLR 24 23     93% 20   30.08        
Dec 13 06:55 Calm 5 Fog/Mist CLR 24 22     93%     30.08        
Dec 13 06:35 Calm 4 Fog/Mist CLR 23 21     93%     30.07        
Dec 13 06:15 Calm 5 Fog/Mist CLR 24 22     92%     30.08        
Dec 13 05:55 Calm 7 Clear CLR 24 22     93%     30.06        
Dec 13 05:35 Calm 5 Fog/Mist CLR 22 20     93%     30.07        
Dec 13 05:15 Calm 5 Fog/Mist CLR 23 21     93%     30.06        
Dec 13 04:55 Calm 4 Fog/Mist CLR 21 19     92%     30.05        
Dec 13 04:35 Calm 5 Fog/Mist CLR 21 19     92%     30.04        
Dec 13 04:15 Calm 5 Fog/Mist CLR 23 21     93%     30.04        
Dec 13 03:55 Calm 7 Clear CLR 25 23     91%     30.03        
Dec 13 03:35 Calm 5 Fog/Mist CLR 24 23     95%     30.02        
Dec 13 03:15 Calm 5 Fog/Mist CLR 22 20     91%     30.02        
Dec 13 02:55 Calm 5 Fog/Mist CLR 24 22     92%     30.02        
Dec 13 02:35 Calm 7 Clear CLR 23 20     90%     30.02        
Dec 13 02:15 Calm 7 Clear CLR 23 21     91%     30.01        
Dec 13 01:55 Calm 7 Clear CLR 24 21     89%     30.01        
Dec 13 01:35 Calm 10 Clear CLR 26 23     89%     30        
Dec 13 01:15 Calm 7 Clear CLR 25 22     90%     29.99        
Dec 13 00:55 Calm 10 Clear CLR 27 24     87%     29.99        
Dec 13 00:35 Calm 10 Clear CLR 25 22     89%     29.99        
Dec 13 00:15 Calm 7 Clear CLR 24 21     87%     29.99        
Dec 12 23:55 Calm 10 Clear CLR 27 23     86%     29.98        
Dec 12 23:35 Calm 7 Clear CLR 26 22     86%     29.97        
Dec 12 23:15 SSW 5 10 Clear CLR 26 22     83% 20   29.97        
Dec 12 22:55 SW 5 10 Clear CLR 27 22     82% 21   29.97        
Dec 12 22:35 W 3 10 Clear CLR 31 24     73% 28   29.96        
Dec 12 22:15 Calm 10 Partly Cloudy SCT038 32 24     73%     29.95        
Dec 12 21:55 W 6 10 Cloudy OVC040 32 24     72% 26   29.96        
Dec 12 21:35 W 7 10 Cloudy OVC040 33 24     71% 27   29.96        
Dec 12 21:15 WSW 6 10 Cloudy OVC040 33 24     70% 27   29.95        
Dec 12 20:55 W 5 10 Cloudy OVC040 33 24     71% 28   29.94        
Dec 12 20:35 W 6 10 Cloudy OVC038 32 24     71% 27   29.94        
Dec 12 20:15 W 6 10 Cloudy OVC038 33 24     68% 28   29.93        
Dec 12 19:55 W 7 10 Cloudy OVC038 33 24     68% 27   29.93        
Dec 12 19:35 W 7 10 Cloudy OVC036 33 24     68% 27   29.92        
Dec 12 19:15 W 9 10 Cloudy OVC036 33 24     68% 26   29.92        
Dec 12 18:55 W 9 10 Cloudy OVC034 33 24     68% 26   29.91        
Dec 12 18:35 W 13 10 Cloudy OVC034 34 23     65% 25   29.91        
Dec 12 18:15 W 9 10 Cloudy OVC032 34 24     66% 26   29.89        
Dec 12 17:55 WNW 15 10 Cloudy BKN028 OVC033 34 24     67% 24   29.89        
Dec 12 17:35 WNW 14 10 Cloudy BKN029 OVC033 34 25     69% 25   29.88        
Dec 12 17:15 WNW 9 10 Cloudy OVC031 36 26     66% 29   29.87        
Dec 12 16:55 WNW 14 10 Cloudy OVC034 36 26     65% 28   29.85        
Dec 12 16:35 W 15 10 Cloudy OVC034 37 26     62% 29   29.84        
Dec 12 16:15 W 14 10 Cloudy OVC036 38 26     60% 30   29.82        
Dec 12 15:55 W 17 10 Cloudy OVC036 39 26     58% 30   29.81        
Dec 12 15:35 W 16 10 Cloudy BKN038 OVC048 40 26     58% 31   29.8        
Dec 12 15:15 WSW 16 10 Mostly Cloudy BKN038 BKN050 40 26     58% 32   29.79        
Dec 12 14:55 WSW 17 10 Mostly Cloudy SCT034 BKN042 42 26     55% 33   29.78        
Dec 12 14:35 SW 16 10 Mostly Cloudy SCT034 SCT070 BKN085 42 28     58% 33   29.77        
Dec 12 14:15 WSW 17 10 Mostly Cloudy BKN085 BKN110 42 26     55% 33   29.76        
Dec 12 13:55 WSW 17 10 Mostly Cloudy SCT075 BKN110 42 26     54% 34   29.76        
Dec 12 13:35 WSW 16 10 Partly Cloudy SCT075 SCT110 41 27     56% 33   29.75        
Dec 12 13:15 WSW 17 10 Clear CLR 42 27     56% 34   29.75        
Dec 12 12:55 SW 16 10 Partly Cloudy SCT032 42 29     58% 34   29.75        
Dec 12 12:35 SW 20 10 Partly Cloudy and Windy SCT032 42 29     59% 34   29.75        
Dec 12 12:15 WSW 16 10 Clear CLR 42 28     58% 34   29.75        
Dec 12 11:55 WSW 18 10 Partly Cloudy SCT028 42 29     60% 34   29.74        
Dec 12 11:35 SW 17 10 Partly Cloudy SCT024 42 31     65% 34   29.75        
Dec 12 11:15 SW 21 10 Partly Cloudy and Windy SCT020 42 32     68% 32   29.75        
Dec 12 10:55 SSW 15 10 Mostly Cloudy BKN020 42 32     69% 34   29.76        
Dec 12 10:35 SW 15 10 Mostly Cloudy BKN020 42 32     70% 34   29.76        
Dec 12 10:15 SSW 20 10 Partly Cloudy and Windy SCT020 41 32     71% 32   29.76        
Dec 12 09:55 SSW 21 10 Partly Cloudy and Windy SCT032 40 32     72% 31   29.77        
Dec 12 09:35 SSW 15 10 Partly Cloudy SCT032 40 32     73% 32   29.78        
Dec 12 09:15 S 15 10 Clear CLR 38 32     77% 30   29.78        
Dec 12 08:55 S 13 10 Partly Cloudy SCT050 SCT070 SCT080 38 32     79% 30   29.78        
Dec 12 08:35 S 13 10 Mostly Cloudy SCT050 BKN060 BKN080 36 31     81% 28   29.79        
Dec 12 08:15 S 13 10 Cloudy OVC060 36 31     82% 28   29.79        
Dec 12 07:55 S 13 10 Light Drizzle OVC060 36 31     83% 27   29.8        
Dec 12 07:35 S 13 10 Cloudy BKN060 BKN075 OVC090 36 31     82% 27   29.8        
Dec 12 07:15 S 11 10 Cloudy SCT075 OVC090 35 30     82% 27   29.8        
Dec 12 06:55 S 13 10 Cloudy SCT075 OVC090 35 30     82% 27   29.81        
Dec 12 06:35 SSE 9 10 Cloudy OVC090 35 30     83% 27   29.81        
Dec 12 06:15 SSE 10 10 Cloudy OVC090 35 30     82% 27   29.81        
Dec 12 05:55 SSE 10 10 Mostly Cloudy BKN100 35 30     82% 27   29.82        
Dec 12 05:35 SSE 8 10 Clear CLR 34 29     82% 27   29.83        
Dec 12 05:15 SSE 11 10 Clear CLR 35 29     80% 26   29.82        
Dec 12 04:55 SSE 10 10 Clear CLR 35 29     79% 27   29.83        
Dec 12 04:35 SSE 11 10 Clear CLR 34 29     80% 26   29.84        
Dec 12 04:15 SSE 10 10 Clear CLR 34 28     79% 26   29.84        
Dec 12 03:55 SSE 10 10 Clear CLR 34 28     79% 26   29.85        
Dec 12 03:35 SSE 8 10 Partly Cloudy SCT120 34 28     80% 27   29.86        
Dec 12 03:15 SSE 9 10 Clear CLR 34 28     80% 26   29.88        
Dec 12 02:55 SE 8 10 Clear CLR 34 28     81% 27   29.88        
Dec 12 02:35 SSE 10 10 Clear CLR 34 28     80% 26   29.9        
Dec 12 02:15 SE 9 10 Clear CLR 33 28     83% 25   29.92        
Dec 12 01:55 SSE 7 10 Clear CLR 32 28     85% 26   29.93        
Dec 12 01:35 SE 7 10 Clear CLR 32 28     85% 26   29.93        
Dec 12 01:15 SE 6 7 Clear CLR 32 28     86% 26   29.94        
Dec 12 00:55 SE 5 7 Clear CLR 31 28     88% 26   29.95        
Dec 12 00:35 ESE 5 7 Clear CLR 30 27     90% 25   29.96        
Dec 12 00:15 SE 3 7 Clear CLR 30 27     90% 27   29.97        
Dec 11 23:55 SE 3 7 Clear CLR 30 27     90% 26   29.98        
Dec 11 23:35 ESE 6 7 Clear CLR 29 27     90% 23   29.98        
Dec 11 23:15 ESE 5 7 Clear CLR 29 26     90% 24   29.99        
Dec 11 22:55 ESE 5 7 Clear CLR 29 26     89% 24   30        
Dec 11 22:35 SE 3 7 Clear CLR 29 26     89% 25   30.01        
Dec 11 22:15 ESE 6 7 Clear CLR 29 26     88% 23   30.01        
Dec 11 21:55 ESE 6 7 Clear CLR 29 26     88% 23   30.02        
Dec 11 21:35 E 7 7 Clear CLR 29 26     88% 22   30.02        
Dec 11 21:15 E 6 7 Clear CLR 29 26     86% 23   30.03        
Dec 11 20:55 E 3 7 Clear CLR 28 25     87% 25   30.04        
Dec 11 20:35 E 3 7 Clear CLR 28 25     88% 25   30.04        
Dec 11 20:15 Calm 7 Clear CLR 28 25     88%     30.05        
Dec 11 19:55 ESE 5 7 Clear CLR 29 25     86% 24   30.04        
Dec 11 19:35 E 3 7 Clear CLR 29 25     84% 26   30.04        
Dec 11 19:15 E 5 10 Clear CLR 31 26     81% 26   30.04        
Dec 11 18:55 ENE 3 10 Clear CLR 30 26     83% 27   30.04        
Dec 11 18:35 E 3 10 Clear CLR 30 26     84% 27   30.04        
Dec 11 18:15 Calm 10 Clear CLR 28 24     86%     30.04        
Dec 11 17:55 Calm 10 Clear CLR 30 26     83%     30.04        
Dec 11 17:35 Calm 10 Clear CLR 31 26     84%     30.04        
Dec 11 17:15 S 3 10 Clear CLR 29 24     84% 25   30.04        
Dec 11 16:55 S 3 10 Clear CLR 30 25     81% 27   30.04        
Dec 11 16:35 Calm 10 Clear CLR 30 25     81%     30.04        
Dec 11 16:15 SW 3 10 Clear CLR 31 25     77% 28   30.04        
Dec 11 15:55 SW 3 10 Clear CLR 34 26     73% 32   30.03        
Dec 11 15:35 Calm 10 Clear CLR 36 26     66%     30.03        
Dec 11 15:15 WSW 3 10 Clear CLR 37 27     65% 35   30.03        
Dec 11 14:55 W 7 10 Clear CLR 38 27     63% 33   30.02        
Dec 11 14:35 WSW 8 10 Clear CLR 39 26     61% 33   30.02        
Dec 11 14:15 WSW 8 10 Clear CLR 39 26     61% 33   30.01        
Dec 11 13:55 W 8 10 Clear CLR 38 26     63% 32   30.01        
Dec 11 13:35 W 8 10 Clear CLR 39 26     60% 33   30.01        
Dec 11 13:15 W 5 10 Clear CLR 38 26     61% 34   30.01        
Dec 11 12:55 WNW 9 10 Clear CLR 38 26     62% 32   30.02        
Dec 11 12:35 WSW 8 10 Clear CLR 37 26     62% 31   30.03        
Dec 11 12:15 W 7 10 Clear CLR 37 26     64% 31   30.03        
Dec 11 11:55 W 8 10 Clear CLR 37 26     65% 31   30.03        
Dec 11 11:35 W 9 10 Clear CLR 35 26     68% 28   30.04        
Dec 11 11:15 W 8 10 Clear CLR 35 26     71% 28   30.04        
Dec 11 10:55 W 11 10 Clear CLR 34 26     72% 25   30.05        
Dec 11 10:35 W 9 10 Clear CLR 33 26     77% 25   30.06        
Dec 11 10:15 W 9 7 Clear CLR 32 26     77% 24   30.08        
Dec 11 09:55 W 11 7 Clear CLR 32 26     78% 23   30.08        
Dec 11 09:35 WSW 9 7 Clear CLR 31 25     80% 23   30.08        
Dec 11 09:15 WSW 14 7 Clear CLR 30 25     81% 19   30.08        
Dec 11 08:55 SW 7 5 Fog/Mist CLR 27 24     86% 20   30.08        
Dec 11 08:35 SW 6 5 Fog/Mist CLR 26 22     87% 19   30.08        
Dec 11 08:15 SW 8 4 Fog/Mist CLR 24 21     88% 15   30.08        
Dec 11 07:55 SW 8 4 Fog/Mist CLR 23 20     89% 14   30.08        
Dec 11 07:35 SSW 7 4 Fog/Mist CLR 22 20     90% 14   30.08        
Dec 11 07:15 SSW 7 4 Fog/Mist CLR 22 19     89% 13   30.08        
Dec 11 06:55 SSW 7 5 Fog/Mist CLR 22 19     89% 14   30.08        
Dec 11 06:35 SSW 8 5 Fog/Mist CLR 22 20     89% 13   30.08        
Dec 11 06:15 SSW 8 5 Fog/Mist CLR 22 19     91% 12   30.09        
Dec 11 05:55 SSW 7 5 Fog/Mist CLR 21 18     90% 12   30.09        
Dec 11 05:35 S 8 5 Fog/Mist CLR 20 18     91% 11   30.09        
Dec 11 05:15 S 8 5 Fog/Mist CLR 20 18     90% 10   30.09        
Dec 11 04:35 SSW 5 5 Fog/Mist CLR 22 19     88% 16   30.1        
Dec 10 21:35 SSW 8 4 Fog/Mist CLR 24 22     91% 15   30.17        
Dec 10 21:15 SSW 9 4 Fog/Mist CLR 24 22     91% 14   30.17        
Dec 10 20:55 SSW 8 4 Fog/Mist CLR 24 22     91% 15   30.16        
Dec 10 20:35 SSW 8 4 Fog/Mist CLR 24 22     91% 15   30.17        
Dec 10 20:15 SSW 7 4 Fog/Mist CLR 24 22     93% 16   30.18        
Dec 10 19:55 SSW 8 4 Fog/Mist CLR 23 22     93% 14   30.18        
Dec 10 19:35 SSW 6 5 Fog/Mist CLR 23 21     93% 16   30.19        
Dec 10 19:15 SSW 7 4 Fog/Mist CLR 23 21     93% 14   30.19        
Dec 10 18:55 S 8 4 Fog/Mist CLR 23 21     93% 14   30.19        
Dec 10 18:35 SSW 10 4 Fog/Mist SCT005 24 22     93% 13   30.19        
Dec 10 18:15 SSW 8 3 Fog/Mist OVC005 24 23     93% 15   30.19        
Dec 10 17:55 SSW 9 3 Fog/Mist OVC005 24 22     93% 15   30.2        
Dec 10 17:35 SSW 10 4 Fog/Mist BKN005 BKN009 24 21     91% 13   30.21        
Dec 10 17:15 SSW 10 5 Fog/Mist SCT009 24 21     90% 13   30.21        
Dec 10 16:55 SW 7 7 Clear CLR 24 21     88% 16   30.22        
Dec 10 16:35 SW 7 7 Clear CLR 25 21     86% 17   30.22        
Dec 10 16:15 SW 10 7 Clear CLR 26 22     83% 16   30.22        
Dec 10 15:55 SW 10 10 Clear CLR 27 22     80% 18   30.22        
Dec 10 15:35 SSW 9 10 Clear CLR 28 22     78% 19   30.21        
Dec 10 15:15 SW 11 10 Clear CLR 29 22     76% 19   30.22        
Dec 10 14:55 SSW 10 10 Clear CLR 29 22     75% 20   30.22        
Dec 10 14:35 SSW 11 10 Clear CLR 29 23     77% 20   30.22        
Dec 10 14:15 S 9 10 Clear CLR 29 23     76% 21   30.22        
Dec 10 13:55 S 10 10 Clear CLR 30 23     75% 21   30.23        
Dec 10 13:35 W 9 10 Clear CLR 30 23     74% 22   30.23        
Dec 10 13:15 SSW 10 10 Clear CLR 30 23     74% 22   30.24        
Dec 10 12:55 SSW 9 10 Clear CLR 31 24     74% 23   30.24        
Dec 10 12:35 W 9 10 Clear CLR 31 22     67% 24   30.25        
Dec 10 12:15 SW 7 10 Clear CLR 31 24     76% 24   30.26        
Dec 10 11:55 SW 7 10 Clear CLR 30 25     83% 23   30.26        
Dec 10 11:35 SSW 5 7 Clear CLR 28 27     98% 22   30.27        
Dec 10 11:15 SW 5 7 Clear CLR 27 26     98% 21   30.28        
Dec 10 10:55 SSW 5 7 Clear CLR 26 25     97% 20   30.29        
Dec 10 10:35 SW 3 5 Fog/Mist CLR 25 24     96% 21   30.3        
Dec 10 10:15 SSW 3 5 Fog/Mist CLR 24 23     96% 20   30.31        
Dec 10 09:55 SW 3 4 Fog/Mist SCT003 23 22     96% 18   30.32        
Dec 10 09:35 SW 3 2.5 Fog/Mist BKN003 21 20     94% 17   30.31        
Dec 10 09:15 SSW 3 1.5 Fog/Mist OVC003 20 18     93% 15   30.31        
Dec 10 08:55 Calm 1 Fog/Mist OVC003 19 17     91%     30.31        
Dec 10 08:35 Calm 0.5 Fog OVC003 18 16     91%     30.31        
Dec 10 08:15 SW 3 0.25 Fog OVC003 18 17     92% 13   30.3        
Dec 10 07:55 Calm 0.25 Fog OVC003 18 17     93%     30.3        
Dec 10 07:35 S 3 0.25 Fog OVC003 19 17     92% 14   30.29        
Dec 10 07:15 Calm 0.25 Fog OVC003 19 17     93%     30.29        
Dec 10 06:55 SW 3 0.25 Fog OVC003 20 18     93% 15   30.29        
Dec 10 06:35 SW 3 0.25 Fog OVC003 20 18     93% 15   30.29        
Dec 10 06:15 Calm 0.25 Fog OVC003 21 19     93%     30.29        
Dec 10 05:55 Calm 0.25 Fog OVC003 21 19     93%     30.29        
Dec 10 05:35 Calm 0.25 Fog OVC003 22 20     94%     30.29        
Dec 10 05:15 Calm 0.25 Fog OVC003 22 21     94%     30.29        
Dec 10 04:55 Calm 0.25 Fog OVC003 23 21     94%     30.29        
Dec 10 04:35 Calm 0.25 Fog OVC003 23 21     94%     30.29        
Dec 10 04:15 Calm 0.25 Fog OVC003 23 21     94%     30.29        
Dec 10 03:55 Calm 0.25 Fog OVC003 22 20     93%     30.29        
Dec 10 03:35 Calm 0.25 Fog OVC003 21 19     93%     30.29        
Dec 10 03:15 Calm 5 Fog/Mist OVC003 19 17     91%     30.3        
Dec 10 02:55 Calm 5 Fog/Mist BKN003 15 13     91%     30.3        
Dec 10 02:35 Calm 4 Fog/Mist CLR 15 12     90%     30.3        
Dec 10 02:15 Calm 4 Fog/Mist CLR 15 13     90%     30.3        
Dec 10 01:55 W 3 4 Fog/Mist CLR 17 15     90% 12   30.3        
Dec 10 01:35 Calm 4 Fog/Mist CLR 18 16     91%     30.3        
Dec 10 01:15 Calm 4 Fog/Mist CLR 19 17     90%     30.29        
Dec 10 00:55 Calm 5 Fog/Mist CLR 19 17     90%     30.29        
Dec 10 00:35 Calm 5 Fog/Mist CLR 20 17     90%     30.29        
Dec 10 00:15 Calm 5 Fog/Mist CLR 19 17     89%     30.3        
Dec 09 23:55 Calm 5 Fog/Mist CLR 20 18     92%     30.3        
Dec 09 23:35 Calm 4 Fog/Mist CLR 18 15     88%     30.3        
Dec 09 23:15 Calm 5 Fog/Mist CLR 20 18     90%     30.31        
Dec 09 22:55 Calm 5 Fog/Mist CLR 22 20     90%     30.31        
Dec 09 22:35 Calm 5 Fog/Mist CLR 22 19     89%     30.3        
Dec 09 22:15 Calm 5 Fog/Mist CLR 23 20     90%     30.31        
Dec 09 21:55 NW 5 5 Fog/Mist CLR 23 20     90% 17   30.3        
Dec 09 21:35 Calm 5 Fog/Mist CLR 22 19     89%     30.31        
Dec 09 21:15 Calm 5 Fog/Mist CLR 23 20     89%     30.31        
Dec 09 20:55 Calm 5 Fog/Mist SCT016 22 20     91%     30.31        
Dec 09 20:35 Calm 5 Fog/Mist BKN018 22 19     90%     30.32        
Dec 09 20:15 Calm 5 Fog/Mist SCT018 20 18     90%     30.32        
Dec 09 19:55 Calm 5 Fog/Mist CLR 21 18     90%     30.32        
Dec 09 19:35 Calm 4 Fog/Mist CLR 20 18     89%     30.32        
Dec 09 19:15 Calm 5 Fog/Mist CLR 23 20     88%     30.32        
Dec 09 18:55 Calm 7 Clear CLR 25 22     86%     30.32        
Dec 09 18:35 Calm 7 Clear CLR 26 22     84%     30.31        
Dec 09 18:15 Calm 7 Clear CLR 27 22     83%     30.31        
Dec 09 17:55 Calm 7 Clear CLR 27 22     80%     30.31        
Dec 09 17:35 Calm 7 Clear CLR 28 22     79%     30.31        
Dec 09 17:15 NE 3 10 Clear CLR 28 22     78% 25   30.31        
Dec 09 16:55 NE 3 10 Clear CLR 28 22     77% 25   30.31        
Dec 09 16:35 NE 3 7 Clear CLR 29 22     75% 26   30.31        
Dec 09 16:15 NE 5 7 Clear CLR 30 23     75% 25   30.31        
Dec 09 15:55 ENE 5 7 Clear CLR 30 23     74% 25   30.32        
Dec 09 15:35 ENE 6 7 Clear CLR 31 24     73% 25   30.32        
Dec 09 15:15 NE 6 7 Clear CLR 32 24     71% 26   30.32        
Dec 09 14:55 NNE 3 7 Clear CLR 32 23     69% 29   30.33        
Dec 09 14:35 NE 5 7 Clear CLR 33 23     67% 28   30.33        
Dec 09 14:15 NE 5 7 Clear CLR 33 22     65% 28   30.33        
Dec 09 13:55 NE 3 10 Clear CLR 33 22     64% 30   30.33        
Dec 09 13:35 NNE 5 10 Clear CLR 33 22     62% 29   30.33        
Dec 09 13:15 NE 7 10 Clear CLR 33 22     63% 27   30.33        
Dec 09 12:55 Calm 10 Clear CLR 32 22     65%     30.34        
Dec 09 12:35 N 5 10 Clear CLR 32 22     66% 28   30.34        
Dec 09 12:15 NE 5 10 Clear CLR 32 22     65% 27   30.35        
Dec 09 11:55 N 6 7 Clear CLR 32 21     63% 26   30.36        
Dec 09 11:35 N 6 10 Clear CLR 32 21     64% 26   30.37        
Dec 09 11:15 NNE 5 10 Clear CLR 30 21     67% 25   30.38        
Dec 09 10:55 NNE 3 10 Clear CLR 29 21     69% 26   30.39        
Dec 09 10:35 Calm 10 Clear CLR 28 21     75%     30.4        
Dec 09 10:15 Calm 7 Clear CLR 26 20     76%     30.41        
Dec 09 09:55 Calm 10 Clear CLR 25 20     80%     30.42        
Dec 09 09:35 Calm 7 Clear CLR 24 19     83%     30.41        
Dec 09 09:15 Calm 5 Fog/Mist CLR 22 19     87%     30.41        
Dec 09 08:55 Calm 4 Fog/Mist CLR 21 18     90%     30.42        
Dec 09 08:35 Calm 5 Fog/Mist CLR 19 16     89%     30.42        
Dec 09 08:15 Calm 5 Fog/Mist CLR 16 13     88%     30.41        
Dec 09 07:55 Calm 5 Fog/Mist CLR 14 11     89%     30.41        
Dec 09 07:35 Calm 7 Clear CLR 12 9     87%     30.41        
Dec 09 07:15 Calm 5 Fog/Mist CLR 11 8     87%     30.41        
Dec 09 06:55 Calm 7 Clear CLR 12 9     87%     30.41        
Dec 09 06:35 Calm 7 Clear CLR 11 8     87%     30.41        
Dec 09 06:15 Calm 7 Clear CLR 12 9     87%     30.41        
Dec 09 05:55 Calm 7 Clear CLR 12 9     87%     30.41        
Dec 09 05:35 Calm 7 Clear CLR 12 9     87%     30.41        
Dec 09 05:15 Calm 10 Clear CLR 12 9     87%     30.41        
Dec 09 04:55 Calm 7 Clear CLR 13 10     88%     30.41        
Dec 09 04:35 Calm 7 Clear CLR 14 11     89%     30.41        
Dec 09 04:15 Calm 7 Clear CLR 14 11     88%     30.42        
Dec 09 03:55 Calm 7 Clear CLR 14 11     88%     30.42        
Dec 09 03:35 Calm 7 Clear CLR 14 11     89%     30.43        
Dec 09 03:15 Calm 7 Clear CLR 14 11     89%     30.44        
Dec 09 02:55 Calm 7 Clear CLR 13 10     87%     30.44        
Dec 09 02:35 Calm 7 Clear CLR 14 11     88%     30.44        
Dec 09 02:15 Calm 7 Clear CLR 13 11     89%     30.45        
Dec 09 01:55 Calm 7 Clear CLR 13 10     88%     30.45        
Dec 09 01:35 Calm 7 Clear CLR 13 9     87%     30.45        
Dec 09 01:15 Calm 7 Clear CLR 16 13     87%     30.45        
Dec 09 00:55 Calm 7 Clear CLR 16 13     89%     30.45        
Dec 09 00:35 Calm 7 Clear CLR 16 13     89%     30.46        
Dec 09 00:15 Calm 7 Clear CLR 16 13     90%     30.47        
Dec 08 23:55 Calm 7 Clear CLR 15 13     91%     30.48        
Dec 08 23:35 Calm 7 Clear CLR 14 12     89%     30.49        
Dec 08 23:15 Calm 7 Clear CLR 15 13     90%     30.49        
Dec 08 22:55 Calm 7 Clear CLR 17 14     89%     30.49        
Dec 08 22:35 Calm 7 Clear CLR 17 15     92%     30.49        
Dec 08 22:15 Calm 7 Clear CLR 17 15     90%     30.5        
Dec 08 21:55 Calm 5 Fog/Mist CLR 17 15     90%     30.51        
Dec 08 21:35 Calm 7 Clear CLR 18 16     90%     30.51        
Dec 08 21:15 Calm 7 Clear CLR 18 15     90%     30.52        
Dec 08 20:55 Calm 7 Clear CLR 17 15     89%     30.52        
Dec 08 20:35 Calm 7 Clear CLR 18 15     89%     30.53        
Dec 08 20:15 Calm 10 Clear CLR 17 14     88%     30.53        
Dec 08 19:55 Calm 10 Clear CLR 18 15     88%     30.53        
Dec 08 19:35 Calm 10 Clear CLR 18 14     85%     30.54        
Dec 08 19:15 Calm 10 Clear CLR 21 16     82%     30.54        
Dec 08 18:55 Calm 10 Clear CLR 21 17     82%     30.53        
Dec 08 18:35 Calm 10 Clear CLR 22 17     79%     30.54        
Dec 08 18:15 Calm 10 Clear CLR 22 17     78%     30.54        
Dec 08 17:55 Calm 10 Clear CLR 23 17     79%     30.54        
Dec 08 17:35 Calm 10 Clear CLR 23 16     75%     30.54        
Dec 08 17:15 SSE 5 10 Clear CLR 24 17     73% 18   30.54        
Dec 08 16:55 SE 5 10 Clear CLR 24 17     73% 19   30.54        
Dec 08 16:35 Calm 10 Partly Cloudy SCT026 26 17     70%     30.54        
Dec 08 16:15 Calm 10 Mostly Cloudy BKN026 26 18     70%     30.54        
Dec 08 15:55 S 3 10 Cloudy OVC026 27 17     68% 23   30.54        
Dec 08 15:35 Calm 10 Cloudy OVC026 27 17     66%     30.54        
Dec 08 15:15 S 3 10 Cloudy OVC026 28 18     65% 24   30.55        
Dec 08 14:55 S 3 10 Cloudy OVC026 28 17     63% 24   30.56        
Dec 08 14:35 Calm 10 Cloudy OVC026 28 17     63%     30.56        
Dec 08 14:15 Calm 10 Cloudy OVC026 28 17     63%     30.57        
Dec 08 13:55 Calm 10 Cloudy OVC026 28 17     63%     30.57        
Dec 08 13:35 Calm 10 Cloudy OVC026 28 17     63%     30.57        
Dec 08 13:15 SW 5 10 Cloudy OVC026 28 18     65% 23   30.58        
Dec 08 12:55 SW 3 10 Cloudy OVC026 28 18     64% 24   30.59        
Dec 08 12:35 Calm 10 Cloudy OVC026 28 17     62%     30.59        
Dec 08 12:15 Calm 10 Cloudy OVC026 28 17     64%     30.59        
Dec 08 11:55 Calm 10 Cloudy OVC026 28 17     64%     30.6        
Dec 08 11:35 Calm 10 Clear   28 17     63%     30.61        
Dec 08 11:15 E 3 10 Clear   28 17     64% 24   30.62        
Dec 08 10:55 Calm 10 Clear   27 17     63%     30.62        
Dec 08 10:35 NNW 3 10 Cloudy OVC024 27 16     63% 24   30.62        
Dec 08 10:15 Calm 10 Cloudy OVC024 27 16     63%     30.62        
Dec 08 09:55 N 5 10 Cloudy OVC024 26 16     64% 21   30.62        
Dec 08 09:35 NNW 13 10 Cloudy OVC024 26 15     64% 14   30.62        
Dec 08 09:15 NW 6 10 Cloudy OVC024 25 15     66% 18   30.62        
Dec 08 08:55 NNW 3 10 Cloudy OVC024 25 14     64% 21   30.61        
Dec 08 08:35 NNW 3 10 Cloudy OVC026 24 15     66% 20   30.61        
Dec 08 08:15 NNW 5 10 Cloudy OVC026 24 15     68% 18   30.62        
Dec 08 07:55 NNW 5 10 Cloudy OVC026 24 15     68% 17   30.61        
Dec 08 07:35 NNW 5 10 Cloudy OVC026 23 14     68% 17   30.6        
Dec 08 07:15 NW 6 10 Cloudy OVC026 23 14     67% 16   30.61        
Dec 08 06:55 Calm 10 Cloudy OVC026 23 15     70%     30.61        
Dec 08 06:35 NNW 5 10 Cloudy OVC026 23 15     71% 17   30.61        
Dec 08 06:15 NNW 3 10 Cloudy OVC026 23 15     72% 18   30.6        
Dec 08 05:55 NNW 3 10 Cloudy OVC026 22 15     73% 18   30.59        
Dec 08 05:35 Calm 10 Cloudy OVC028 22 15     73%     30.59        
Dec 08 05:15 Calm 10 Cloudy OVC030 22 15     74%     30.58        
Dec 08 04:55 Calm 10 Cloudy OVC030 22 14     73%     30.58        
Dec 08 04:35 Calm 10 Cloudy OVC032 21 14     73%     30.59        
Dec 08 04:15 Calm 10 Cloudy OVC032 21 14     72%     30.59        
Dec 08 03:55 W 3 10 Cloudy OVC032 21 13     72% 16   30.59        
Dec 08 03:35 Calm 10 Cloudy OVC034 21 13     72%     30.59        
Dec 08 03:15 Calm 10 Cloudy OVC036 21 13     71%     30.59        
Dec 08 02:55 WNW 3 10 Cloudy OVC036 20 13     72% 15   30.59        
Dec 08 02:35 W 3 10 Cloudy OVC038 20 13     73% 15   30.59        
Dec 08 02:15 W 3 10 Cloudy OVC038 20 12     71% 15   30.6        
Dec 08 01:55 W 5 10 Cloudy OVC038 19 12     72% 13   30.59        
Dec 08 01:35 W 5 10 Cloudy OVC040 19 12     73% 12   30.58        
Dec 08 01:15 W 5 10 Cloudy OVC040 19 11     70% 12   30.58        
Dec 08 00:55 W 5 10 Cloudy OVC040 18 10     71% 11   30.58        
Dec 08 00:35 Calm 10 Cloudy OVC042 18 10     72%     30.57        
Dec 08 00:15 W 3 10 Cloudy OVC042 17 10     75% 12   30.57        
Dec 07 23:55 W 5 10 Mostly Cloudy BKN042 18 10     73% 11   30.56        
Dec 07 23:35 W 3 10 Partly Cloudy SCT042 17 10     73% 12   30.56        
Dec 07 23:15 W 5 10 Partly Cloudy SCT044 17 10     73% 10   30.56        
Dec 07 22:55 W 5 10 Mostly Cloudy BKN044 17 10     73% 10   30.56        
Dec 07 22:35 W 6 10 Mostly Cloudy BKN046 17 9     73% 8   30.56        
Dec 07 22:15 WSW 3 10 Clear CLR 18 10     72% 12   30.55        
Dec 07 21:55 Calm 10 Clear CLR 18 9     70%     30.54        
Dec 07 21:35 WNW 3 10 Clear CLR 19 9     64% 14   30.54        
Dec 07 21:15 WNW 3 10 Clear CLR 19 9     66% 14   30.54        
Dec 07 20:55 WNW 5 10 Clear CLR 19 9     66% 12   30.54        
Dec 07 20:35 WNW 3 10 Clear CLR 18 9     67% 13   30.54        
Dec 07 20:15 WNW 3 10 Clear CLR 18 9     67% 13   30.54        
Dec 07 19:55 WNW 5 10 Clear CLR 19 9     65% 12   30.54        
Dec 07 19:35 WNW 3 10 Clear CLR 19 9     66% 14   30.53        
Dec 07 19:15 WNW 5 10 Clear CLR 20 9     63% 13   30.52        
Dec 07 18:35 WNW 3 10 Clear CLR 20 9     61% 15   30.52        
Dec 07 18:15 NW 5 10 Clear CLR 21 9     59% 14   30.51        
Dec 07 17:55 NW 6 10 Clear CLR 21 9     58% 13   30.51        
Dec 07 17:35 NW 7 10 Clear CLR 22 9     59% 13   30.51        
Dec 07 17:15 NNW 10 10 Clear CLR 22 9     58% 11   30.51        
Dec 07 16:55 NW 14 10 Clear CLR 23 9     56% 10   30.5        
Dec 07 16:35 NW 8 10 Partly Cloudy SCT034 23 10     58% 14   30.49        
Dec 07 16:15 WNW 8 10 Partly Cloudy SCT034 23 11     58% 14   30.49        
Dec 07 15:55 WNW 10 10 Partly Cloudy SCT032 24 10     56% 14   30.49        
Dec 07 15:35 W 14 10 Partly Cloudy SCT030 24 11     57% 12   30.48        
Dec 07 15:15 WNW 11 10 Mostly Cloudy BKN028 26 13     58% 15   30.47        
Dec 07 14:55 W 13 10 Clear CLR 26 13     58% 15   30.47        
Dec 07 14:35 W 10 10 Partly Cloudy SCT030 26 15     61% 16   30.46        
Dec 07 14:15 W 11 10 Partly Cloudy SCT030 27 14     59% 17   30.46        
Dec 07 13:55 W 16 10 Partly Cloudy SCT030 28 15     57% 16   30.46        
Dec 07 13:35 W 13 10 Clear CLR 28 15     57% 17   30.46        
Dec 07 13:15 WSW 14 10 Partly Cloudy SCT026 28 15     59% 17   30.47        
Dec 07 12:55 W 14 10 Partly Cloudy SCT026 28 16     61% 17   30.48        
Dec 07 12:35 WSW 13 10 Partly Cloudy SCT026 29 17     60% 19   30.48        
Dec 07 12:15 W 15 10 Partly Cloudy SCT024 27 16     62% 16   30.49        
Dec 07 11:55 WSW 15 10 Mostly Cloudy BKN024 27 17     65% 15   30.5        
Dec 07 11:35 W 13 10 Partly Cloudy SCT024 27 17     63% 17   30.51        
Dec 07 11:15 SW 14 10 Partly Cloudy SCT026 27 16     62% 16   30.52        
Dec 07 10:55 WSW 13 10 Partly Cloudy SCT026 27 16     63% 17   30.52        
Dec 07 10:35 WSW 10 10 Partly Cloudy SCT028 27 16     63% 17   30.52        
Dec 07 10:15 SW 9 10 Clear CLR 26 15     63% 16   30.53        
Dec 07 09:55 WSW 8 10 Clear CLR 25 14     63% 16   30.54        
Dec 07 09:35 WSW 8 10 Clear CLR 24 14     66% 15   30.53        
Dec 07 09:15 WSW 6 10 Clear CLR 23 15     70% 16   30.52        
Dec 07 08:55 WSW 5 10 Clear CLR 22 14     72% 15   30.52        
Dec 07 08:35 Calm 10 Clear CLR 20 13     74%     30.51        
Dec 07 08:15 W 3 10 Clear CLR 19 13     78% 14   30.51        
Dec 07 07:55 Calm 10 Clear CLR 18 13     82%     30.5        
Notice The following observation data may not be complete
May 15 09:15   10 Partly Cloudy SCT017 SCT032          %              
May 14 23:15 SE 5 1.5 Cloudy BKN015 BKN024 OVC038 63 63     98%     29.85   0    
May 14 10:15 Calm 10 Cloudy OVC090 65 65     99%     29.98        
May 14 06:55   7 Cloudy BKN050 BKN065 OVC080 58 57     97%     30.01        
May 14 02:35 SE 3 7 Clear CLR 52 52     100%     29.92        
May 13 22:55 Calm 7 Mostly Cloudy BKN085 52 51     98%     29.99        
May 13 14:15 N 7 10 Partly Cloudy SCT080 64 57     78%     30.02        
May 13 12:35 NNE 5 7 Clear   63 58     82%     30.04        
May 13 12:15 NNE 7 7 Mostly Cloudy BKN100 62 57     83%     30.04        
Notice The following observation data may not be complete
May 13 09:15   4 Fog/Mist OVC005          %              
May 13 01:15 NE 8 3 Thunderstorms and Rain OVC003 50 50     100% 47   30.05        
May 12 23:35 NE 3 5 Fog/Mist OVC005 47 47     100% 46   30.04        
May 12 16:35 ENE 8 2 Clear   47 47     100% 43   30.04        
May 12 14:15 NNE 9 7 Cloudy OVC012 48 46     93% 44   30.11        
Notice The following observation data may not be complete
May 12 13:15   7 Cloudy OVC012          %              
May 12 12:35 NNE 11 10 Cloudy OVC010 50 47     90% 45   30.1        
May 12 03:35 NNE 13 10 Clear   47 45     93% 42   29.96        
May 12 01:55 NE 13 10 Cloudy OVC080 49 46     92% 44   29.95        
Notice The following observation data may not be complete
May 12 00:35   10 Cloudy OVC090          %              
May 11 23:35 NNE 6 10 Cloudy OVC090 51 47     89%     29.96        
May 11 22:55 NE 5 10 Cloudy SCT090 OVC120 50 47     90% 48   29.96        
May 11 22:35 NNE 6 10 Cloudy OVC120 50 47     90% 48   29.96        
May 11 21:55 NE 6 10 Cloudy OVC110 50 47     90% 47   29.96        
May 11 20:55 NE 10 10 Mostly Cloudy SCT070 BKN095 50 47     90% 46   29.94        
May 11 13:15 E 15 10 Clear CLR 58 51     76%     29.94        
Jun 12 07:35 W 13 10 Clear CLR 76 61     60%   76 29.99        
Jun 12 01:55 SSW 10 10 Clear CLR 73 58     58%   73 29.96        
Jun 11 21:15 S 14 10 Clear CLR 81 56     42%   81 29.89        
Notice The following observation data may not be complete
Jun 11 16:35   10 Clear CLR          %              
Jun 11 12:35 SW 18 10 Clear CLR 88 59     38%   88 29.96        
Notice The following observation data may not be complete
Jun 11 12:15   10 Clear CLR          %              
Jun 11 10:35 WSW 16 10 Clear CLR 84 60     44%   84 29.99        
Notice The following observation data may not be complete
Jun 11 02:35   10 Clear CLR          %              
Notice The following observation data may not be complete
Jun 10 20:15   10 Clear CLR          %              
Jun 10 17:55 SSW 23 10 Clear and Windy CLR 87 47     24%   84 29.81        
Jun 10 15:55   10 Clear CLR 89 47     24%   86 29.83        
Jun 10 15:15 SSW 23 7 Clear and Windy CLR 89 49     26%   86 29.83        
Jun 10 13:15   10 Clear CLR 87 49     28%   84 29.87        
Jun 10 10:55 SW 20 10 Clear and Windy CLR 82 53     37%   81 29.89        
Jun 10 08:15 SW 9 10 Clear CLR 71 56     59%   70 29.91        
Notice The following observation data may not be complete
Jun 09 23:15   10 Clear CLR          %              
Jun 09 18:55 NNE 8 10 Mostly Cloudy SCT085 BKN110 72 56     56%   72 29.8        
Notice The following observation data may not be complete
Jun 09 18:15   10 Mostly Cloudy SCT030 BKN085          %              
Jun 09 16:35 NE 13 10 Clear   83 55     38%   82 29.77        
Jun 09 16:15   10 Partly Cloudy SCT090 88 52     29%   86 29.76        
Jun 09 10:35 W 11 10 Clear CLR 80 54     40%   80 29.82        
Notice The following observation data may not be complete
Jun 09 09:15   10 Partly Cloudy SCT095          %              
Jun 09 06:55 NNW 9 10 Partly Cloudy SCT100 SCT120 68 50     53%     29.81        
Notice The following observation data may not be complete
Jun 09 04:35   10 Clear CLR          %              
Jun 09 00:15 Calm 10 Clear   64 49     57%     29.85        
Jun 08 23:15 S 7 10 Mostly Cloudy BKN100 65 49     55%     29.85        
Jun 08 18:55 WSW 6 10 Clear CLR 77 41     27%   76 29.86        
Notice The following observation data may not be complete
Jun 07 22:15   10 Clear CLR          %              
Notice The following observation data may not be complete
Jun 07 21:15   10 Clear CLR          %              
Jun 07 14:35 NE 9 10 Clear CLR 71 45     40%   70 30.11        
Jun 07 11:55 NNE 11 10 Clear CLR 69 48     48%     30.14        
Jun 07 10:55 NNE 11 10 Clear CLR 67 48     49%     30.15        
Notice The following observation data may not be complete
Jun 07 09:15   10 Clear CLR          %              
Jun 06 09:55 NNE 10 10 Clear CLR 63 48     59%     30.06        
Notice The following observation data may not be complete
Jun 06 09:15   10 Clear CLR          %              
Jun 06 04:35 N 7 10 Clear CLR 55 49     81%     29.99        
Jun 06 00:35 N 10 10 Clear CLR 57 45     64%     29.96        
Notice The following observation data may not be complete
Jun 05 19:15   10 Clear CLR          %